• In Slovakia
  • List of Countries
  • For 7 days
  • Water Temperature
  • Satellite Maps
  • Weather Map
  • Weather Widgets
  • user-avatar
    Login

    Hourly Weather Duesseldorf

    Today, 23 July, Monday

    Time Temperature Precipitation Wind Pressure Humidity
    00:00 +20°C° 0 mm 1 mps 759 mmHg 70%
    01:00 +20°C° 0 mm 1 mps 759 mmHg 71%
    02:00 +20°C° 0 mm 1 mps 759 mmHg 72%
    03:00 +19°C° 0 mm 1 mps 759 mmHg 74%
    04:00 +20°C° 0 mm 1 mps 760 mmHg 71%
    05:00 +21°C° 0 mm 1 mps 760 mmHg 68%
    06:00 +20°C° 0 mm 0 mps 760 mmHg 65%
    07:00 +24°C° 0 mm 1 mps 760 mmHg 60%
    08:00 +26°C° 0 mm 1 mps 760 mmHg 55%
    09:00 +27°C° 0 mm 2 mps 760 mmHg 50%
    10:00 +28°C° 0 mm 2 mps 760 mmHg 47%
    11:00 +29°C° 0 mm 2 mps 759 mmHg 44%
    12:00 +30°C° 0 mm 2 mps 759 mmHg 40%
    13:00 +31°C° 0 mm 2 mps 759 mmHg 39%
    14:00 +31°C° 0 mm 2 mps 759 mmHg 38%
    15:00 +32°C° 0 mm 2 mps 759 mmHg 37%
    16:00 +31°C° 0 mm 2 mps 759 mmHg 40%
    17:00 +31°C° 0 mm 1 mps 759 mmHg 43%
    18:00 +30°C° 0 mm 1 mps 759 mmHg 45%
    19:00 +28°C° 0 mm 1 mps 759 mmHg 49%
    20:00 +27°C° 0 mm 1 mps 759 mmHg 53%
    21:00 +25°C° 0 mm 1 mps 760 mmHg 57%
    22:00 +24°C° 0 mm 1 mps 760 mmHg 60%
    23:00 +24°C° 0 mm 1 mps 760 mmHg 62%

    Tomorrow, 24 July, Tuesday

    Time Temperature Precipitation Wind Pressure Humidity
    00:00 +23°C° 0 mm 1 mps 760 mmHg 65%
    01:00 +22°C° 0 mm 1 mps 759 mmHg 67%
    02:00 +22°C° 0 mm 1 mps 759 mmHg 69%
    03:00 +21°C° 0 mm 1 mps 759 mmHg 71%
    04:00 +22°C° 0 mm 1 mps 759 mmHg 69%
    05:00 +23°C° 0 mm 1 mps 759 mmHg 67%
    06:00 +24°C° 0 mm 1 mps 759 mmHg 64%
    07:00 +26°C° 0 mm 1 mps 759 mmHg 58%
    08:00 +28°C° 0 mm 1 mps 759 mmHg 52%
    09:00 +30°C° 0 mm 1 mps 758 mmHg 46%
    10:00 +31°C° 0 mm 1 mps 758 mmHg 42%
    11:00 +32°C° 0 mm 1 mps 758 mmHg 38%
    12:00 +34°C° 0 mm 1 mps 757 mmHg 34%
    13:00 +34°C° 0 mm 1 mps 757 mmHg 34%
    14:00 +34°C° 0 mm 1 mps 757 mmHg 33%
    15:00 +34°C° 0 mm 1 mps 757 mmHg 32%
    16:00 +33°C° 0 mm 1 mps 757 mmHg 35%
    17:00 +33°C° 0 mm 1 mps 757 mmHg 38%
    18:00 +32°C° 0 mm 1 mps 756 mmHg 42%
    19:00 +30°C° 0 mm 1 mps 757 mmHg 45%
    20:00 +29°C° 0 mm 2 mps 757 mmHg 49%
    21:00 +27°C° 0 mm 2 mps 758 mmHg 53%
    22:00 +26°C° 0 mm 2 mps 758 mmHg 57%
    23:00 +25°C° 0 mm 2 mps 757 mmHg 60%

    Day after tomorrow, 25 July, Wednesday

    Time Temperature Precipitation Wind Pressure Humidity
    00:00 +24°C° 0 mm 1 mps 757 mmHg 63%
    01:00 +24°C° 0 mm 1 mps 758 mmHg 65%
    02:00 +23°C° 0 mm 1 mps 758 mmHg 67%
    03:00 +23°C° 0 mm 1 mps 758 mmHg 69%
    04:00 +24°C° 0 mm 1 mps 758 mmHg 67%
    05:00 +25°C° 0 mm 1 mps 758 mmHg 65%
    06:00 +25°C° 0 mm 1 mps 758 mmHg 63%
    07:00 +28°C° 0 mm 1 mps 758 mmHg 57%
    08:00 +30°C° 0 mm 1 mps 758 mmHg 50%
    09:00 +32°C° 0 mm 1 mps 758 mmHg 44%
    10:00 +33°C° 0 mm 1 mps 758 mmHg 40%
    11:00 +32°C° 0 mm 0 mps 758 mmHg 37%
    12:00 +33°C° 0 mm 0 mps 758 mmHg 33%
    13:00 +33°C° 0 mm 0 mps 758 mmHg 33%
    14:00 +33°C° 0 mm 0 mps 758 mmHg 34%
    15:00 +34°C° 0 mm 1 mps 758 mmHg 34%
    16:00 +33°C° 0 mm 1 mps 758 mmHg 37%
    17:00 +33°C° 0 mm 1 mps 758 mmHg 39%
    18:00 +32°C° 0 mm 1 mps 758 mmHg 42%
    19:00 +31°C° 0 mm 2 mps 758 mmHg 46%
    20:00 +29°C° 0 mm 2 mps 758 mmHg 50%
    21:00 +28°C° 0 mm 2 mps 759 mmHg 54%
    22:00 +27°C° 0 mm 2 mps 759 mmHg 58%
    23:00 +26°C° 0 mm 2 mps 759 mmHg 62%

    26 July, Thursday

    Time Temperature Precipitation Wind Pressure Humidity
    00:00 +26°C° 0 mm 2 mps 759 mmHg 66%
    01:00 +25°C° 0 mm 2 mps 759 mmHg 67%
    02:00 +25°C° 0 mm 1 mps 759 mmHg 68%
    03:00 +24°C° 0 mm 1 mps 759 mmHg 69%
    04:00 +25°C° 0 mm 1 mps 759 mmHg 67%
    05:00 +26°C° 0 mm 1 mps 759 mmHg 64%
    06:00 +27°C° 0 mm 1 mps 759 mmHg 61%
    07:00 +29°C° 0 mm 2 mps 759 mmHg 55%
    08:00 +31°C° 0 mm 2 mps 759 mmHg 48%
    09:00 +34°C° 0 mm 2 mps 759 mmHg 42%
    10:00 +34°C° 0 mm 3 mps 758 mmHg 39%
    11:00 +35°C° 0 mm 3 mps 758 mmHg 36%
    12:00 +36°C° 0 mm 3 mps 758 mmHg 32%
    13:00 +36°C° 0 mm 3 mps 758 mmHg 32%
    14:00 +36°C° 0 mm 3 mps 757 mmHg 31%
    15:00 +37°C° 0 mm 3 mps 757 mmHg 30%
    16:00 +36°C° 0 mm 3 mps 757 mmHg 33%
    17:00 +35°C° 0 mm 3 mps 757 mmHg 36%
    18:00 +34°C° 0 mm 3 mps 757 mmHg 39%
    19:00 +33°C° 0 mm 3 mps 757 mmHg 42%
    20:00 +30°C° 0 mm 3 mps 758 mmHg 44%
    21:00 +28°C° 0 mm 4 mps 758 mmHg 47%
    22:00 +27°C° 0 mm 3 mps 758 mmHg 49%
    23:00 +26°C° 0 mm 3 mps 758 mmHg 51%

    27 July, Friday

    Time Temperature Precipitation Wind Pressure Humidity
    00:00 +25°C° 0 mm 3 mps 758 mmHg 53%
    01:00 +25°C° 0 mm 2 mps 758 mmHg 56%
    02:00 +24°C° 0 mm 2 mps 758 mmHg 59%
    03:00 +24°C° 0 mm 2 mps 758 mmHg 62%
    04:00 +24°C° 0 mm 2 mps 758 mmHg 61%
    05:00 +25°C° 0 mm 2 mps 758 mmHg 60%
    06:00 +26°C° 0 mm 2 mps 758 mmHg 59%
    07:00 +28°C° 0 mm 3 mps 757 mmHg 54%
    08:00 +30°C° 0 mm 3 mps 757 mmHg 48%
    09:00 +33°C° 0 mm 3 mps 757 mmHg 43%
    10:00 +34°C° 0 mm 3 mps 757 mmHg 39%
    11:00 +35°C° 0 mm 2 mps 756 mmHg 35%
    12:00 +36°C° 0 mm 2 mps 756 mmHg 31%
    13:00 +36°C° 0 mm 2 mps 756 mmHg 31%
    14:00 +36°C° 0 mm 2 mps 756 mmHg 31%
    15:00 +36°C° 0 mm 2 mps 756 mmHg 30%
    16:00 +35°C° 0 mm 2 mps 756 mmHg 34%
    17:00 +34°C° 0 mm 2 mps 756 mmHg 38%
    18:00 +32°C° 0 mm 2 mps 756 mmHg 41%
    19:00 +31°C° 0.1 mm 2 mps 756 mmHg 45%
    20:00 +30°C° 0.1 mm 1 mps 756 mmHg 49%
    21:00 +28°C° 0.1 mm 1 mps 756 mmHg 53%
    22:00 +27°C° 0.4 mm 1 mps 756 mmHg 56%
    23:00 +27°C° 0.4 mm 1 mps 757 mmHg 60%

    28 July, Saturday

    Time Temperature Precipitation Wind Pressure Humidity
    00:00 +26°C° 0.4 mm 1 mps 757 mmHg 64%
    01:00 +25°C° 0.6 mm 1 mps 757 mmHg 68%
    02:00 +24°C° 0.6 mm 1 mps 757 mmHg 73%
    03:00 +24°C° 0.6 mm 2 mps 757 mmHg 77%
    04:00 +24°C° 0.2 mm 1 mps 757 mmHg 77%
    05:00 +24°C° 0.2 mm 1 mps 757 mmHg 76%
    06:00 +25°C° 0.2 mm 1 mps 757 mmHg 75%
    07:00 +26°C° 0.1 mm 1 mps 757 mmHg 70%
    08:00 +27°C° 0.1 mm 1 mps 758 mmHg 64%
    09:00 +29°C° 0.1 mm 1 mps 758 mmHg 59%
    10:00 +30°C° 0.4 mm 1 mps 758 mmHg 55%
    11:00 +31°C° 0.4 mm 1 mps 758 mmHg 52%
    12:00 +32°C° 0.4 mm 1 mps 757 mmHg 49%
    13:00 +32°C° 0.2 mm 1 mps 758 mmHg 47%
    14:00 +32°C° 0.2 mm 1 mps 758 mmHg 46%
    15:00 +32°C° 0.2 mm 1 mps 758 mmHg 44%
    16:00 +32°C° 0 mm 1 mps 758 mmHg 46%
    17:00 +31°C° 0 mm 1 mps 758 mmHg 48%
    18:00 +31°C° 0 mm 2 mps 758 mmHg 50%
    19:00 +29°C° 0.3 mm 2 mps 758 mmHg 55%
    20:00 +27°C° 0.3 mm 2 mps 758 mmHg 60%
    21:00 +26°C° 0.3 mm 3 mps 759 mmHg 65%
    22:00 +25°C° 0.2 mm 2 mps 759 mmHg 70%
    23:00 +24°C° 0.2 mm 2 mps 759 mmHg 74%
    Show more